Notices

What's New in latest Release from April 7th, 2021:

- Updated Glossary, including Speed of Maximum Gust, and Total Hourly Precipitation

- Updated national and regional climate services offices contacts and prices information

- Addition of station inventory lists for 1981-2010, 1971-2000, and 1961-1990 Normals.

If you haven't already, please take our survey and provide feedback about our website: https://eccc.sondage-survey.ca/f/LanguageSelection.aspx?s=442ca660-fcf1-47c0-95a9-59707d6fd709

Hourly Data Report for October 15, 2019

SAINT JOHN A
NEW BRUNSWICK
Current Station Operator: NAVCAN

45°18'58.000" N
65°53'24.000" W
108.80 m
8104901
71609
YSJ

Download Data

Hourly Data (October 2019)
Hourly Data Report for October 15, 2019
TIME
LST
Temp Definition
°C
Dew Point Definition
°C
Rel Hum Definition
%
Precip. Amount Definition
mm

Wind Dir Definition
10's deg

Wind Spd Definition
km/h
Visibility Definition
km
Stn Press Definition
kPa
Hmdx Definition


Wind Chill Definition


Weather Definition


00:00 10.6 10.2 97   12 13 9.7 100.18     Rain,Fog
01:00 10.5 10.3 98   9 4 8.1 100.16     Rain,Fog
02:00 10.4 10.3 99   6 6 4.8 100.14     Rain,Fog
03:00 10.5 10.4 99   10 12 6.4 100.08     Rain,Fog
04:00 10.8 10.6 99   1 4 4.8 100.08     Rain,Fog
05:00 10.8 10.7 99   36 5 12.9 100.08     Cloudy
06:00 10.6 10.4 99   33 8 12.9 100.07     LegendNANA
07:00 10.5 10.3 99   36 3 3.2 100.12     Fog
08:00 11.3 11.1 99   34 6 4.8 100.13     Fog
09:00 10.7 9.4 92   32 20 24.1 100.19     LegendNANA
10:00 10.2 6.8 79   32 30 24.1 100.23     LegendNANA
11:00 11.4 6.5 72   32 23 24.1 100.23     Mostly Cloudy
12:00 13.1 4.8 57   33 23 24.1 100.21     LegendNANA
13:00 14.3 4.7 52   30 18 24.1 100.18     LegendNANA
14:00 14.8 1.7 41   30 20 24.1 100.18     Mainly Clear
15:00 14.5 0.8 39   29 21 24.1 100.16     LegendNANA
16:00 14.2 1.0 40   29 18 24.1 100.17     LegendNANA
17:00 12.7 1.2 45   30 13 24.1 100.19     Mainly Clear
18:00 9.7 2.3 60   29 9 24.1 100.25     LegendNANA
19:00 5.3 3.3 87   36 2 24.1 100.32     LegendNANA
20:00 3.5 2.3 92   36 1 24.1 100.34     Clear
21:00 1.3 0.5 95   36 2 24.1 100.41     LegendNANA
22:00 2.8 2.0 95   36 2 24.1 100.44     LegendNANA
23:00 0.7 0.1 95   1 3 24.1 100.51     Clear

Notes on Data Quality.

Legend

  • E = Estimated
  • M = Missing
  • NA = Not Available*
  • [empty] = Indicates an unobserved value
Date modified: